DW6610 Weather Reports


Display with metric or nautical units.
time (UTC)temp
F
wind
direction
speed
MPH
gust
MPH
rain 1hr
in
rain 24hr
in
rain mn
in
humidity
%
barometer
mb
20260509211553 85 163 1.0 4.0 0.00 0.00 0.00 37 1011.0
20260509211052 85 180 1.0 3.0 0.00 0.00 0.00 35 1011.2
20260509210550 85 90 1.0 5.0 0.00 0.00 0.00 38 1011.2
20260509210100 84 135 1.0 5.0 0.00 0.00 0.00 37 1011.1
20260509205552 84 120 2.0 5.0 0.00 0.00 0.00 40 1011.1
20260509205050 84 207 1.0 5.0 0.00 0.00 0.00 37 1011.1
20260509204600 85 153 1.0 5.0 0.00 0.00 0.00 44 1011.0
20260509204052 84 122 1.0 5.0 0.00 0.00 0.00 39 1011.1
20260509203551 83 163 2.0 5.0 0.00 0.00 0.00 41 1011.0
20260509203055 84 216 1.0 5.0 0.00 0.00 0.00 40 1011.1
20260509202552 84 117 1.0 5.0 0.00 0.00 0.00 39 1011.2
20260509202053 85 84 1.0 3.0 0.00 0.00 0.00 40 1011.1
20260509201551 84 129 1.0 7.0 0.00 0.00 0.00 37 1011.1
20260509201051 84 114 2.0 7.0 0.00 0.00 0.00 40 1011.2
20260509200551 84 82 2.0 7.0 0.00 0.00 0.00 45 1011.2
20260509200104 83 90 1.0 4.0 0.00 0.00 0.00 42 1011.2
20260509195550 84 139 2.0 5.0 0.00 0.00 0.00 37 1011.4
20260509195049 83 153 1.0 5.0 0.00 0.00 0.00 40 1011.3
20260509194555 83 101 2.0 6.0 0.00 0.00 0.00 40 1011.4
20260509194051 84 204 1.0 7.0 0.00 0.00 0.00 46 1011.3
20260509193554 83 70 3.0 7.0 0.00 0.00 0.00 47 1011.4
20260509193101 84 165 1.0 6.0 0.00 0.00 0.00 46 1011.4
20260509192550 84 207 1.0 6.0 0.00 0.00 0.00 44 1011.4
20260509192052 83 92 3.0 5.0 0.00 0.00 0.00 45 1011.5
20260509191613 84 199 1.0 4.0 0.00 0.00 0.00 42 1011.5
20260509191050 84 86 1.0 4.0 0.00 0.00 0.00 48 1011.5
20260509190550 84 77 1.0 3.0 0.00 0.00 0.00 43 1011.5
20260509190112 84 164 1.0 5.0 0.00 0.00 0.00 45 1011.5
20260509185550 83 103 3.0 5.0 0.00 0.00 0.00 41 1011.6
20260509185050 84 118 2.0 4.0 0.00 0.00 0.00 41 1011.5
20260509184555 84 0 0.0 3.0 0.00 0.00 0.00 52 1011.5
20260509184051 84 78 1.0 5.0 0.00 0.00 0.00 49 1011.7
20260509183551 83 95 2.0 5.0 0.00 0.00 0.00 51 1011.8
20260509183105 83 115 1.0 5.0 0.00 0.00 0.00 47 1011.8
20260509182551 84 71 1.0 4.0 0.00 0.00 0.00 52 1011.8
20260509182050 84 126 1.0 4.0 0.00 0.00 0.00 47 1011.8
20260509181553 83 82 1.0 4.0 0.00 0.00 0.00 51 1011.9
20260509181051 84 39 1.0 3.0 0.00 0.00 0.00 50 1012.0
20260509180550 84 96 1.0 3.0 0.00 0.00 0.00 52 1012.0
20260509180057 83 93 1.0 6.0 0.00 0.00 0.00 56 1012.1
20260509175550 83 101 2.0 6.0 0.00 0.00 0.00 57 1012.1
20260509175050 82 48 2.0 5.0 0.00 0.00 0.00 54 1012.0
20260509174554 82 83 1.0 4.0 0.00 0.00 0.00 49 1012.0
20260509174048 82 120 1.0 4.0 0.00 0.00 0.00 52 1012.1
20260509173551 82 78 0.0 4.0 0.00 0.00 0.00 52 1012.0
20260509173101 82 150 1.0 4.0 0.00 0.00 0.00 49 1012.0
20260509172554 82 161 1.0 3.0 0.00 0.00 0.00 56 1012.0
20260509172052 82 122 1.0 3.0 0.00 0.00 0.00 52 1012.0
20260509171606 82 120 1.0 5.0 0.00 0.00 0.00 56 1012.0
20260509171051 81 117 2.0 5.0 0.00 0.00 0.00 54 1012.0
20260509170551 81 117 2.0 5.0 0.00 0.00 0.00 57 1012.1
20260509170057 81 189 2.0 4.0 0.00 0.00 0.00 58 1012.1
20260509165552 81 63 1.0 4.0 0.00 0.00 0.00 54 1012.2
20260509165051 82 116 1.0 4.0 0.00 0.00 0.00 54 1012.2
20260509164554 81 0 1.0 4.0 0.00 0.00 0.00 59 1012.2
20260509164055 81 70 2.0 4.0 0.00 0.00 0.00 59 1012.1
20260509163553 80 102 1.0 4.0 0.00 0.00 0.00 59 1012.1
20260509163101 80 130 1.0 5.0 0.00 0.00 0.00 60 1012.2
20260509162553 80 101 1.0 5.0 0.00 0.00 0.00 60 1012.1
20260509162051 80 205 1.0 5.0 0.00 0.00 0.00 58 1012.0
20260509161555 80 72 1.0 5.0 0.00 0.00 0.00 59 1012.0
20260509161052 79 124 1.0 5.0 0.00 0.00 0.00 61 1012.0
20260509160553 79 153 2.0 5.0 0.00 0.00 0.00 60 1012.0
20260509160050 78 214 0.0 4.0 0.00 0.00 0.00 59 1011.9
20260509155552 78 154 1.0 4.0 0.00 0.00 0.00 62 1012.0
20260509155052 78 144 2.0 6.0 0.00 0.00 0.00 59 1011.9
20260509154558 78 173 1.0 6.0 0.00 0.00 0.00 59 1011.7
20260509154053 78 172 2.0 4.0 0.00 0.00 0.00 57 1011.7
20260509153551 79 117 1.0 4.0 0.00 0.00 0.00 62 1011.7
20260509153058 79 121 0.0 3.0 0.00 0.00 0.00 63 1011.6
20260509152551 78 79 1.0 4.0 0.00 0.00 0.00 63 1011.6
20260509152052 78 114 1.0 4.0 0.00 0.00 0.00 63 1011.6
20260509151601 78 186 1.0 4.0 0.00 0.00 0.00 64 1011.6
20260509151050 78 82 1.0 4.0 0.00 0.00 0.00 66 1011.7
20260509150552 77 98 1.0 4.0 0.00 0.00 0.00 64 1011.7
20260509150055 77 0 1.0 5.0 0.00 0.00 0.00 67 1011.7
20260509145552 76 143 1.0 5.0 0.00 0.00 0.00 67 1011.8
20260509145052 76 88 1.0 5.0 0.00 0.00 0.00 69 1011.8
20260509144556 75 160 2.0 5.0 0.00 0.00 0.00 70 1011.8
20260509144051 75 103 2.0 5.0 0.00 0.00 0.00 68 1011.8
20260509143553 75 165 1.0 3.0 0.00 0.00 0.00 71 1011.8
20260509143057 75 107 1.0 5.0 0.00 0.00 0.00 71 1011.9
20260509142551 74 147 0.0 5.0 0.00 0.00 0.00 73 1011.9
20260509142052 73 134 2.0 5.0 0.00 0.00 0.00 71 1011.9
20260509141553 73 108 2.0 5.0 0.00 0.00 0.00 71 1011.8
20260509141052 73 96 1.0 5.0 0.00 0.00 0.00 76 1011.7
20260509140552 73 88 2.0 5.0 0.00 0.00 0.00 72 1011.6
20260509140132 73 96 1.0 4.0 0.00 0.00 0.00 76 1011.6
20260509135550 72 118 1.0 4.0 0.00 0.00 0.00 74 1011.6
20260509135050 72 111 1.0 6.0 0.00 0.00 0.00 77 1011.6
20260509134606 71 138 0.0 6.0 0.00 0.00 0.00 79 1011.7
20260509134051 71 80 1.0 6.0 0.00 0.00 0.00 75 1011.7
20260509133551 71 153 1.0 4.0 0.00 0.00 0.00 77 1011.6
20260509133058 71 94 1.0 3.0 0.00 0.00 0.00 78 1011.7
20260509132552 70 131 1.0 4.0 0.00 0.00 0.00 80 1011.6
20260509132054 69 0 1.0 4.0 0.00 0.00 0.00 80 1011.6
20260509131616 69 0 1.0 3.0 0.00 0.00 0.00 80 1011.6
20260509131051 69 98 0.0 2.0 0.00 0.00 0.00 82 1011.5
20260509130550 68 0 0.0 2.0 0.00 0.00 0.00 85 1011.5
20260509125551 66 75 0.0 1.0 0.00 0.00 0.00 87 1011.5
20260509125055 65 73 0.0 2.0 0.00 0.00 0.00 89 1011.5
20260509124553 63 73 0.0 2.0 0.00 0.00 0.00 88 1011.4
20260509124050 63 73 1.0 2.0 0.00 0.00 0.00 90 1011.4
20260509123552 61 0 0.0 1.0 0.00 0.00 0.00 92 1011.4
20260509123102 60 84 0.0 1.0 0.00 0.00 0.00 94 1011.4
20260509122552 59 84 0.0 2.0 0.00 0.00 0.00 95 1011.3
20260509122051 58 0 0.0 3.0 0.00 0.00 0.00 95 1011.2
20260509121552 58 0 0.0 4.0 0.00 0.00 0.00 95 1011.2
20260509121052 58 72 0.0 4.0 0.00 0.00 0.00 95 1011.2
20260509120554 58 70 1.0 3.0 0.00 0.00 0.00 95 1011.2
20260509120058 57 0 0.0 3.0 0.00 0.00 0.00 95 1011.2
20260509115551 57 77 1.0 3.0 0.00 0.00 0.00 95 1011.2
20260509115051 57 77 0.0 5.0 0.00 0.00 0.00 95 1011.2
20260509114608 57 43 1.0 5.0 0.00 0.00 0.00 95 1011.1
20260509114051 57 71 1.0 6.0 0.00 0.00 0.00 95 1011.1
20260509113549 57 73 2.0 7.0 0.00 0.00 0.00 95 1011.0
20260509113055 57 307 1.0 7.0 0.00 0.00 0.00 96 1010.9
20260509112550 57 110 2.0 6.0 0.00 0.00 0.00 96 1010.9
20260509112050 56 20 0.0 5.0 0.00 0.00 0.00 96 1010.8
20260509111555 56 55 1.0 4.0 0.00 0.00 0.00 96 1010.8
20260509111050 56 86 1.0 3.0 0.00 0.00 0.00 96 1010.6
20260509110552 56 45 1.0 3.0 0.00 0.00 0.00 96 1010.6
20260509110104 56 47 0.0 2.0 0.00 0.00 0.00 96 1010.5
20260509105551 56 60 0.0 2.0 0.00 0.00 0.00 96 1010.3
20260509105053 56 63 0.0 2.0 0.00 0.00 0.00 96 1010.3
20260509104558 56 66 0.0 2.0 0.00 0.00 0.00 96 1010.4
20260509104051 56 69 0.0 2.0 0.00 0.00 0.00 96 1010.3
20260509103552 56 68 0.0 2.0 0.00 0.00 0.00 96 1010.3
20260509103054 56 54 1.0 3.0 0.00 0.00 0.00 96 1010.3
20260509102551 56 52 1.0 3.0 0.00 0.00 0.00 96 1010.3
20260509102052 56 40 0.0 2.0 0.00 0.00 0.00 96 1010.5
20260509101554 56 82 0.0 3.0 0.00 0.00 0.00 96 1010.4
20260509101055 56 0 0.0 3.0 0.00 0.00 0.00 97 1010.4
20260509100552 55 45 1.0 3.0 0.00 0.00 0.00 97 1010.5
20260509100054 55 84 1.0 3.0 0.00 0.00 0.00 97 1010.6
20260509095555 55 37 0.0 2.0 0.00 0.00 0.00 97 1010.6
20260509095052 55 91 0.0 2.0 0.00 0.00 0.00 97 1010.7
20260509094610 55 0 0.0 2.0 0.00 0.00 0.00 96 1010.9
20260509094051 55 72 0.0 1.0 0.00 0.00 0.00 96 1010.8
20260509093551 55 83 0.0 1.0 0.00 0.00 0.00 96 1010.9
20260509093053 54 0 0.0 0.0 0.00 0.00 0.00 96 1010.8
20260509092555 55 0 0.0 0.0 0.00 0.00 0.00 96 1010.9
20260509092051 55 0 0.0 0.0 0.00 0.00 0.00 95 1010.6
20260509091556 55 0 0.0 0.0 0.00 0.00 0.00 95 1010.6
20260509091054 55 0 0.0 0.0 0.00 0.00 0.00 95 1010.5
20260509090552 55 0 0.0 0.0 0.00 0.00 0.00 94 1010.4
20260509085552 55 0 0.0 0.0 0.00 0.00 0.00 94 1010.5
20260509085050 56 0 0.0 0.0 0.00 0.00 0.00 94 1010.5
20260509084559 56 0 0.0 0.0 0.00 0.00 0.00 94 1010.7
20260509084050 56 0 0.0 0.0 0.00 0.00 0.00 93 1010.6
20260509083550 56 0 0.0 0.0 0.00 0.00 0.00 93 1010.6
20260509083054 56 0 0.0 0.0 0.00 0.00 0.00 92 1010.6
20260509082550 57 0 0.0 1.0 0.00 0.00 0.00 92 1010.5
20260509082051 57 0 0.0 1.0 0.00 0.00 0.00 92 1010.5
20260509081555 57 0 0.0 1.0 0.00 0.00 0.00 91 1010.5
20260509081051 57 0 0.0 2.0 0.00 0.00 0.00 91 1010.3
20260509080552 57 0 0.0 3.0 0.00 0.00 0.00 91 1010.3
20260509080052 58 0 0.0 3.0 0.00 0.00 0.00 91 1010.3
20260509075550 57 70 1.0 3.0 0.00 0.00 0.00 91 1010.1
20260509075050 58 44 1.0 3.0 0.00 0.00 0.00 91 1010.3
20260509074552 58 49 0.0 4.0 0.00 0.00 0.00 91 1010.3
20260509074052 58 56 1.0 4.0 0.00 0.00 0.00 90 1010.3
20260509073552 58 50 0.0 3.0 0.00 0.00 0.00 90 1010.3
20260509073050 58 15 0.0 2.0 0.00 0.00 0.00 90 1010.2
20260509072548 58 49 0.0 2.0 0.00 0.00 0.00 90 1010.0
20260509072051 58 0 0.0 3.0 0.00 0.00 0.00 90 1009.9
20260509071616 58 75 0.0 3.0 0.00 0.00 0.00 90 1010.0
20260509071052 58 0 0.0 3.0 0.00 0.00 0.00 90 1010.3
20260509070552 58 0 0.0 1.0 0.00 0.00 0.00 90 1010.3
20260509070106 58 0 0.0 1.0 0.00 0.00 0.00 89 1010.4
20260509065551 58 0 0.0 1.0 0.00 0.00 0.00 89 1010.4
20260509065051 58 0 0.0 1.0 0.00 0.00 0.00 89 1010.6
20260509064556 58 0 0.0 1.0 0.00 0.00 0.00 88 1010.7
20260509064050 59 0 0.0 1.0 0.00 0.00 0.00 88 1010.7
20260509063551 59 0 0.0 3.0 0.00 0.00 0.00 88 1010.3
20260509063055 59 34 0.0 3.0 0.00 0.00 0.00 88 1010.5
20260509062551 59 41 1.0 3.0 0.00 0.00 0.00 87 1010.7
20260509062051 59 51 1.0 5.0 0.00 0.00 0.00 87 1010.9
20260509061555 59 325 1.0 5.0 0.00 0.00 0.00 87 1011.0
20260509061048 59 32 1.0 4.0 0.00 0.00 0.00 87 1010.6
20260509060549 59 17 1.0 4.0 0.00 0.00 0.00 87 1011.1
20260509055550 59 66 1.0 5.0 0.00 0.00 0.00 87 1010.9
20260509055053 59 27 2.0 5.0 0.00 0.00 0.00 86 1010.9
20260509054613 59 50 1.0 5.0 0.00 0.00 0.00 86 1011.1
20260509054050 59 93 1.0 7.0 0.00 0.00 0.00 86 1011.2
20260509053549 60 71 2.0 7.0 0.00 0.00 0.00 85 1011.1
20260509053144 60 30 2.0 4.0 0.00 0.00 0.00 85 1011.3
20260509052552 60 11 0.0 4.0 0.00 0.00 0.00 85 1011.7
20260509052052 60 321 2.0 4.0 0.00 0.00 0.00 85 1011.5
20260509051554 60 72 1.0 3.0 0.00 0.00 0.00 85 1011.8
20260509051049 60 89 1.0 4.0 0.00 0.00 0.00 85 1011.7
20260509050550 60 65 1.0 4.0 0.00 0.00 0.00 84 1011.7
20260509050059 60 38 1.0 5.0 0.00 0.00 0.00 84 1011.6
20260509045550 60 71 1.0 5.0 0.00 0.00 0.00 84 1011.8
20260509045050 60 77 1.0 4.0 0.00 0.00 0.00 84 1011.9
20260509044557 60 1 1.0 5.0 0.00 0.00 0.00 84 1011.9
20260509044050 60 72 2.0 5.0 0.00 0.00 0.00 84 1012.0
20260509043549 60 48 1.0 3.0 0.00 0.00 0.00 84 1012.0
20260509043057 60 44 0.0 3.0 0.00 0.00 0.00 83 1012.1
20260509042549 60 71 0.0 4.0 0.00 0.00 0.00 83 1012.1
20260509042050 60 29 0.0 5.0 0.00 0.00 0.00 82 1012.2
20260509041558 60 47 0.0 5.0 0.00 0.00 0.00 82 1012.1
20260509041050 61 76 1.0 5.0 0.00 0.00 0.00 82 1012.1
20260509040550 61 55 1.0 5.0 0.00 0.00 0.00 81 1012.0
20260509040109 61 43 1.0 3.0 0.00 0.00 0.00 81 1012.0
20260509035550 61 41 0.0 2.0 0.00 0.00 0.00 81 1011.8
20260509035054 61 86 0.0 2.0 0.00 0.00 0.00 80 1011.9
20260509034614 61 67 0.0 2.0 0.00 0.00 0.00 80 1012.0
20260509034050 61 0 0.0 3.0 0.00 0.00 0.00 79 1011.8
20260509033550 61 82 0.0 3.0 0.00 0.00 0.00 79 1011.6
20260509033052 62 0 1.0 3.0 0.00 0.00 0.00 78 1011.5
20260509032550 62 44 0.0 2.0 0.00 0.00 0.00 78 1011.5
20260509032050 62 68 0.0 3.0 0.00 0.00 0.00 77 1011.6
20260509031554 62 0 0.0 5.0 0.00 0.00 0.00 77 1011.6
20260509031050 63 53 1.0 5.0 0.00 0.00 0.00 76 1011.3
20260509030552 63 41 0.0 4.0 0.00 0.00 0.00 76 1011.5
20260509025550 63 72 1.0 3.0 0.00 0.00 0.00 75 1011.6
20260509025051 63 313 1.0 3.0 0.00 0.00 0.00 75 1011.7
20260509024554 63 65 0.0 2.0 0.00 0.00 0.00 74 1011.6
20260509024051 63 49 0.0 3.0 0.00 0.00 0.00 74 1011.7
20260509023554 64 53 1.0 3.0 0.00 0.00 0.00 73 1011.8
20260509023055 64 55 0.0 4.0 0.00 0.00 0.00 72 1011.8
20260509022551 64 70 1.0 4.0 0.00 0.00 0.00 72 1011.7
20260509022048 64 53 0.0 4.0 0.00 0.00 0.00 71 1011.8
20260509021553 64 53 1.0 6.0 0.00 0.00 0.00 71 1011.8
20260509021051 64 28 1.0 6.0 0.00 0.00 0.00 70 1011.5
20260509020551 64 55 1.0 3.0 0.00 0.00 0.00 70 1011.5
20260509020057 64 53 1.0 3.0 0.00 0.00 0.00 69 1011.3
20260509015552 65 46 1.0 3.0 0.00 0.00 0.00 69 1011.3
20260509015051 65 63 0.0 3.0 0.00 0.00 0.00 69 1011.2
20260509014553 65 60 1.0 3.0 0.00 0.00 0.00 68 1011.2
20260509014051 65 78 0.0 3.0 0.00 0.00 0.00 68 1011.1
20260509013551 66 58 0.0 3.0 0.00 0.00 0.00 67 1011.3
20260509013109 66 51 1.0 3.0 0.00 0.00 0.00 67 1011.2
20260509012548 66 63 1.0 3.0 0.00 0.00 0.00 66 1011.4
20260509012051 66 60 1.0 3.0 0.00 0.00 0.00 65 1011.3
20260509011603 67 82 0.0 3.0 0.00 0.00 0.00 64 1011.4
20260509011050 67 75 0.0 3.0 0.00 0.00 0.00 64 1011.4
20260509010552 67 51 1.0 3.0 0.00 0.00 0.00 63 1011.3
20260509010051 68 63 0.0 2.0 0.00 0.00 0.00 62 1011.3
20260509005553 68 74 0.0 2.0 0.00 0.00 0.00 61 1011.3
20260509005051 69 0 0.0 2.0 0.00 0.00 0.00 60 1011.2
20260509004602 69 0 0.0 2.0 0.00 0.00 0.00 59 1011.2
20260509004052 70 0 0.0 2.0 0.00 0.00 0.00 58 1011.2
20260509003555 70 51 0.0 2.0 0.00 0.00 0.00 57 1011.2
20260509003113 71 76 0.0 4.0 0.00 0.00 0.00 56 1011.3
20260509002551 71 79 0.0 7.0 0.00 0.00 0.00 55 1011.1
20260509002051 72 15 2.0 7.0 0.00 0.00 0.00 54 1011.1
20260509001602 72 27 1.0 5.0 0.00 0.00 0.00 53 1011.0
20260509001052 73 11 2.0 5.0 0.00 0.00 0.00 51 1011.1
20260509000551 74 93 1.0 9.0 0.00 0.00 0.00 51 1011.1
20260509000111 74 344 3.0 9.0 0.00 0.00 0.00 49 1011.1
20260508235552 75 100 2.0 5.0 0.00 0.00 0.00 50 1011.0
20260508235052 75 309 2.0 6.0 0.00 0.00 0.00 49 1011.1
20260508234554 76 60 2.0 6.0 0.00 0.00 0.00 48 1011.1
20260508234053 76 52 2.0 6.0 0.00 0.00 0.00 48 1011.1
20260508233549 76 79 3.0 5.0 0.00 0.00 0.00 48 1011.1
20260508233054 76 46 2.0 6.0 0.00 0.00 0.00 47 1011.1
20260508232550 76 35 3.0 6.0 0.00 0.00 0.00 46 1011.1
20260508232049 77 39 3.0 9.0 0.00 0.00 0.00 46 1011.2
20260508231559 77 53 3.0 9.0 0.00 0.00 0.00 46 1011.2
20260508231050 77 64 3.0 7.0 0.00 0.00 0.00 46 1011.1
20260508230549 77 73 3.0 7.0 0.00 0.00 0.00 46 1011.2
20260508230058 77 60 3.0 7.0 0.00 0.00 0.00 47 1011.3
20260508225549 78 67 2.0 8.0 0.00 0.00 0.00 47 1011.3
20260508225052 78 49 2.0 9.0 0.00 0.00 0.00 46 1011.4
20260508224604 78 22 3.0 9.0 0.00 0.00 0.00 45 1011.5
20260508224052 78 30 2.0 8.0 0.00 0.00 0.00 45 1011.4
20260508223550 78 346 3.0 8.0 0.00 0.00 0.00 44 1011.5
20260508223055 79 308 2.0 5.0 0.00 0.00 0.00 44 1011.5
20260508222549 79 93 1.0 5.0 0.00 0.00 0.00 44 1011.4
20260508222052 78 71 2.0 6.0 0.00 0.00 0.00 44 1011.6
20260508221555 78 77 2.0 6.0 0.00 0.00 0.00 44 1011.5
20260508221050 79 101 2.0 6.0 0.00 0.00 0.00 45 1011.6
20260508220549 78 75 2.0 10.0 0.00 0.00 0.00 43 1011.6
20260508220055 78 310 2.0 10.0 0.00 0.00 0.00 44 1011.6
20260508215549 78 4 4.0 10.0 0.00 0.00 0.00 45 1011.6
20260508215053 78 32 4.0 8.0 0.00 0.00 0.00 46 1011.7
20260508214555 78 70 2.0 7.0 0.00 0.00 0.00 47 1011.7
20260508214050 78 53 2.0 7.0 0.00 0.00 0.00 46 1011.6
20260508213550 78 84 3.0 8.0 0.00 0.00 0.00 46 1011.6
20260508213055 78 86 4.0 8.0 0.00 0.00 0.00 44 1011.7
20260508212551 78 74 3.0 6.0 0.00 0.00 0.00 44 1011.8